SXM-10

Last updated on Sun Jun 21 2026 00:03:09 GMT+0000 (Coordinated Universal Time)

1 64290U 25122A 26171.36544730 -.00000022 00000+0 00000+0 0 9995 2 64290 0.0222 37.6064 0001887 326.2448 280.1173 1.00272116 3711
UTC large
Height (km)
Speed (km/s)
/
Latitude / Longitude
Inclination (degrees)
Orbital Period (minutes)
Azimuth
Elevation
Range (km)
Doppler Factor

Next 0 passes for location: London (51.5072 / 0.1276)

No passes found over London.
SXM-10